{"data":{"norad_id":60056,"intl_designator":"2024-112U","name":"STARLINK-31825","alt_names":[],"object_type":"PAYLOAD","status":"ACTIVE","operator":null,"country":"US","launch_date":"2024-06-08","launch_site_code":"AFWTR","launch_vehicle":null,"mission":null,"orbit_class":"UNKNOWN","rcs_meters":null,"size_class":null,"mass_kg":null,"dimensions":null,"purposes":["comms"],"wikipedia_slug":null,"has_3d_model":false,"image_url":null,"decayed_at":null,"tle_current":{"epoch":"2026-09-21T03:41:54.195072Z","epoch_age_seconds":121127,"freshness":"FRESH","line1":"1 60056U 24112U   26264.15409948 -.00000583  00000+0 -61375-5 0  9991","line2":"2 60056  53.1576 248.6283 0001013  62.7661 297.3445 15.34384924128549","mean_motion":15.34384924,"eccentricity":0.0001013,"inclination_deg":53.1576,"raan_deg":248.6283,"arg_perigee_deg":62.7661,"mean_anomaly_deg":297.3445,"bstar":-6.1375e-6,"rev_number":12854,"period_min":93.848680176422,"perigee_km":462.05506796759,"apogee_km":463.44103127865,"semimajor_km":6840.8850496231,"source":"CELESTRAK","updated_at":"2026-09-22T09:00:49.145318Z"}}}